GFSGL_700_rhum_126.txt.gz
RH
65 60 66 66 63 68 61 57 57 65 63 58 56 56 56 59 66 78 78 98 78 74 79 68 60 59 57 55 54 59 67 35 44 57 69 79 81 96 98 98 100 100 99
71 75 76 80 77 74 70 69 77 71 58 54 51 51 57 61 58 66 70 86 79 80 79 77 67 64 59 58 51 49 66 40 46 60 65 73 78 90 98 99 100 100 100
86 90 92 84 97 78 71 65 65 53 50 42 39 44 59 61 62 67 70 88 84 85 85 82 79 76 68 58 53 50 64 46 45 64 70 79 82 88 92 98 100 100 100
97 92 88 83 98 92 86 68 56 62 76 64 64 59 50 60 66 60 60 70 94 95 85 85 85 81 74 68 60 54 70 50 42 65 74 80 84 94 98 100 99 100 100
95 93 98 100 100 99 100 98 97 96 89 99 98 100 96 81 76 75 74 69 70 74 76 78 79 76 80 80 80 60 75 55 38 62 71 77 85 85 96 98 100 100 100
92 88 85 86 91 98 100 100 100 97 100 100 100 100 95 97 96 85 93 90 87 83 82 81 80 83 98 98 88 72 85 58 39 64 76 68 79 97 99 100 100 99 99
32 38 56 70 78 84 90 96 94 94 98 98 100 97 95 100 97 96 94 99 98 100 97 91 88 92 96 100 100 78 94 66 36 52 82 85 88 89 95 100 100 100 99
33 32 30 28 27 28 35 51 68 78 83 83 88 87 82 80 97 99 100 97 97 99 100 100 98 99 99 100 99 93 94 63 42 53 71 91 95 98 96 99 94 100 99
36 35 35 35 34 33 31 28 25 26 36 53 72 81 86 90 94 100 92 92 100 100 100 100 100 100 99 98 98 95 97 70 68 83 97 100 99 92 97 99 99 98 99
21 20 21 21 22 23 25 27 29 31 31 29 26 25 28 48 74 81 88 96 100 100 100 100 99 100 100 100 99 100 99 87 86 93 98 99 95 99 100 90 99 100 100
13 12 12 12 12 11 12 13 14 16 17 20 25 31 33 28 26 35 67 79 86 97 99 99 99 100 100 100 100 100 100 99 100 90 86 86 83 100 100 92 99 93 93
9 8 8 8 8 7 7 7 7 8 8 8 8 10 12 20 32 32 29 36 70 81 87 90 96 99 99 99 100 99 99 100 98 99 100 100 99 100 98 99 98 99 98
6 6 5 5 5 5 5 5 4 5 5 5 5 5 6 7 8 12 30 36 36 59 82 87 89 92 95 98 98 99 99 99 100 100 100 100 99 100 100 99 99 98 99
5 5 5 6 6 6 6 6 6 6 6 5 5 5 4 4 4 6 8 16 36 39 41 66 84 88 88 90 94 96 97 98 98 99 99 99 99 100 100 99 100 99 99
6 7 8 8 9 9 9 8 8 8 7 7 6 6 6 5 4 4 4 6 10 28 44 44 50 76 91 94 92 93 95 96 96 97 97 98 98 98 98 99 99 99 99
10 10 12 12 12 12 12 11 11 10 9 8 8 7 6 6 5 3 3 3 6 10 26 52 56 57 68 90 97 96 95 95 96 96 96 96 96 96 96 97 97 97 97
14 15 16 16 16 15 15 13 12 10 9 8 7 6 6 5 4 4 3 3 4 14 31 56 73 75 76 80 90 99 98 97 96 95 96 96 96 96 95 96 96 96 96
20 20 19 18 17 16 14 12 11 9 8 8 7 7 6 6 5 5 5 6 8 16 38 66 88 97 96 98 99 100 100 98 97 97 96 95 96 96 96 96 96 96 96
22 22 21 20 19 16 14 12 11 10 9 10 10 11 11 10 10 9 9 15 25 36 56 78 93 99 100 99 100 100 100 99 99 99 97 97 96 95 96 96 96 96 96
27 26 24 23 21 18 15 13 12 11 12 13 13 14 14 14 17 23 32 38 52 71 84 95 100 100 99 99 99 98 98 100 99 98 98 97 97 97 96 96 96 96 96
32 31 30 28 25 19 15 13 12 13 14 16 17 17 17 18 20 28 45 66 80 89 92 96 100 100 100 100 100 100 99 98 98 99 99 100 99 97 97 95 92 88 83
37 36 35 31 22 15 13 13 15 16 17 19 21 22 22 22 22 25 31 50 76 91 98 98 84 96 100 100 100 100 100 100 100 99 97 97 97 97 97 96 92 84 74
44 43 35 22 14 14 15 17 17 18 20 22 24 26 26 26 26 26 26 27 38 72 93 100 100 86 54 63 87 97 100 100 100 99 97 96 96 95 94 91 86 78 74
52 41 22 14 15 18 20 21 21 21 22 22 24 27 29 27 26 29 29 28 28 29 43 77 95 100 100 98 85 59 45 48 49 44 43 44 44 45 49 49 43 40 42
48 23 15 17 19 22 24 26 27 28 28 27 25 26 27 28 27 25 28 31 30 30 30 30 35 61 78 83 92 98 100 100 100 100 96 92 88 78 70 62 55 48 42
27 17 19 22 24 27 29 30 32 33 35 38 35 30 29 29 29 28 27 28 30 31 31 30 30 30 30 32 49 70 76 74 71 71 73 68 66 63 56 47 36 28 24

GFSGL_700_rhum_129.txt.gz
RH
84 87 98 98 80 97 79 74 65 54 48 48 47 48 48 48 52 53 61 64 65 68 85 85 96 100 95 80 83 77 73 72 69 52 64 56 34 58 82 89 97 95 100
80 84 95 92 93 90 73 64 60 57 57 56 58 60 55 54 48 45 59 66 71 73 85 80 94 100 87 82 92 96 71 65 66 56 53 58 37 54 76 86 89 99 98
100 100 96 90 86 77 81 80 83 78 75 71 63 63 64 63 56 53 61 67 61 64 81 84 84 95 91 91 97 96 74 70 75 61 56 61 42 47 75 81 93 92 94
100 98 98 93 81 82 89 83 89 93 78 73 72 67 51 48 44 47 51 62 71 66 64 73 80 94 95 94 96 92 79 76 75 68 71 71 53 40 72 75 88 86 86
99 99 98 98 88 74 90 96 88 81 98 86 87 86 86 78 98 97 95 77 85 85 82 77 82 87 98 100 94 92 88 80 79 71 97 81 61 37 54 73 82 96 94
92 98 97 94 98 97 100 100 99 100 99 100 100 100 98 100 100 100 100 98 100 100 99 99 89 87 83 91 91 91 87 83 87 84 84 78 67 38 61 79 84 93 98
30 29 30 34 36 40 48 63 80 88 94 92 92 95 98 94 96 96 95 98 98 100 98 99 99 93 97 92 91 96 90 94 98 100 99 90 74 45 68 83 85 83 99
36 36 35 34 34 33 31 29 27 28 29 32 42 54 68 76 80 82 83 89 87 93 98 100 93 99 99 99 99 99 97 95 100 98 98 99 85 61 80 95 97 96 96
18 17 17 18 17 17 17 17 18 19 21 24 26 27 26 26 25 27 50 72 82 93 100 100 100 100 98 89 98 98 100 100 100 99 99 99 97 85 98 100 99 99 98
10 10 9 9 8 8 8 9 9 8 8 8 8 9 10 11 12 18 25 26 25 48 77 90 98 99 100 100 100 100 100 100 100 99 98 99 98 97 90 100 100 98 100
7 7 6 6 6 6 5 5 5 5 5 5 4 4 4 5 5 6 6 8 13 24 26 31 65 83 93 99 100 100 100 100 100 100 100 99 100 88 100 100 100 100 92
6 6 5 5 6 6 6 6 6 6 6 6 5 5 5 5 5 4 4 4 4 6 9 20 28 35 69 80 90 97 99 99 100 100 100 100 100 99 99 99 100 97 100
6 7 8 8 9 9 9 9 9 9 8 8 8 7 7 6 6 6 6 6 5 4 4 6 11 28 32 44 72 81 95 97 99 99 99 99 100 100 99 100 94 97 93
10 10 11 12 12 12 12 12 12 12 12 11 11 10 10 9 9 8 8 7 7 6 4 4 5 13 32 38 43 70 82 87 96 97 98 98 99 99 99 99 99 99 100
15 15 15 15 15 14 13 13 13 12 12 12 12 12 12 12 11 11 11 10 9 8 7 5 4 4 16 46 49 55 75 84 87 94 96 97 97 97 97 98 98 98 98
17 17 17 16 16 16 16 16 15 15 16 16 15 15 15 15 14 14 12 12 11 9 8 7 6 5 6 25 64 70 76 92 93 94 96 96 96 96 96 96 96 97 97
20 20 20 20 19 19 19 19 19 19 19 18 18 18 17 16 14 13 11 11 10 8 8 7 6 5 12 31 63 90 97 100 100 100 99 99 97 96 96 96 96 95 96
23 25 25 24 23 23 22 22 22 22 21 19 17 14 13 12 12 11 10 10 9 8 9 9 10 15 24 51 85 99 100 100 100 99 98 98 98 97 96 96 96 96 95
19 27 28 28 27 27 27 26 25 22 18 14 11 10 11 12 13 14 14 13 13 12 15 22 39 54 69 85 100 100 100 99 98 98 98 98 98 97 97 96 96 96 96
16 28 33 34 33 32 32 29 23 16 12 11 11 12 14 15 16 16 17 17 19 27 39 54 71 82 95 100 100 100 100 100 99 98 98 98 98 98 98 97 96 96 96
18 28 38 40 38 38 35 24 15 12 12 13 15 15 16 17 18 20 21 21 22 27 48 76 89 92 88 100 100 100 100 100 100 99 98 98 97 97 97 98 98 97 97
22 33 46 47 46 41 23 13 13 14 16 18 18 19 18 19 20 22 24 25 25 25 27 52 87 100 96 75 92 100 100 100 100 100 100 99 99 98 98 98 98 97 94
29 43 54 55 47 22 14 14 16 19 20 21 21 23 24 23 22 23 26 26 27 28 28 28 43 82 100 100 76 53 75 96 100 100 100 100 100 99 99 99 98 98 97
36 56 63 55 24 15 16 17 20 23 24 24 25 26 28 30 28 25 25 26 25 28 31 30 30 31 57 86 99 100 94 62 46 49 57 71 80 91 97 97 93 90 88
46 67 64 28 16 18 19 22 25 27 27 28 29 30 31 34 36 34 28 27 28 27 28 31 32 31 31 32 53 76 88 97 100 100 100 97 86 72 62 55 52 49 45
63 68 33 18 19 21 24 27 30 32 32 33 34 36 37 38 41 45 40 33 31 32 31 31 31 32 31 30 30 30 34 59 76 78 78 80 87 90 92 92 88 81 69

GFSGL_700_rhum_132.txt.gz
RH
99 100 100 75 91 98 98 90 100 99 90 90 79 70 67 62 51 47 48 48 54 58 61 61 59 70 82 87 87 95 97 97 88 68 70 78 79 73 65 63 53 59 68
99 100 99 98 100 99 98 82 95 86 100 100 96 87 67 67 62 57 57 56 61 63 67 66 58 61 74 89 91 92 100 100 91 72 69 79 83 78 72 56 60 57 65
99 99 98 100 92 95 99 100 98 93 86 87 82 83 77 74 69 68 67 64 62 64 63 67 71 69 73 86 92 79 92 99 93 91 75 88 87 77 78 58 62 52 63
100 100 99 99 100 97 94 96 97 92 89 91 84 76 75 74 73 70 69 67 68 61 59 68 73 71 73 67 88 84 91 99 100 99 90 90 86 73 72 62 65 56 57
98 99 98 98 99 100 91 88 93 85 83 72 82 85 82 80 84 83 74 62 58 92 88 96 95 91 93 81 78 81 81 88 99 99 100 94 83 74 67 71 76 77 59
56 81 96 95 98 99 97 96 94 89 87 95 100 97 81 91 97 93 99 93 100 90 93 100 100 100 96 95 90 83 89 91 92 98 90 87 82 77 78 87 88 82 54
36 35 33 34 30 29 29 30 30 36 33 35 48 54 54 51 56 69 88 83 90 99 88 90 99 88 97 97 100 99 100 100 99 97 96 96 92 87 93 99 100 84 59
16 15 14 15 16 15 15 17 17 18 17 16 17 17 17 18 20 22 24 26 28 42 58 81 88 92 84 98 97 99 99 99 100 92 100 90 100 98 100 100 100 100 91
10 10 9 8 8 7 7 8 7 6 6 5 5 5 5 5 5 5 6 7 7 9 14 22 26 44 77 93 98 98 99 99 96 99 90 98 100 100 98 100 99 100 84
7 7 6 6 5 5 5 5 5 5 5 5 5 4 4 4 4 4 4 4 4 4 4 4 5 8 18 24 30 63 81 87 96 100 98 99 100 100 100 100 99 98 99
6 6 6 6 6 6 7 7 7 7 7 7 7 6 6 6 6 6 6 5 5 5 5 4 4 4 4 6 13 24 32 64 86 100 100 100 99 100 100 100 99 100 100
8 8 9 9 10 10 10 10 10 10 10 10 10 10 9 9 9 8 8 8 8 7 6 6 6 6 5 4 4 6 17 27 40 59 89 99 100 99 100 100 100 100 100
13 13 13 13 13 13 13 13 13 12 12 11 11 11 11 10 10 10 10 10 10 10 10 9 9 8 7 6 5 4 5 14 28 36 59 73 93 97 99 99 99 99 99
17 17 17 16 16 15 15 14 14 14 14 13 13 13 13 13 13 12 12 12 12 12 12 11 11 10 10 9 8 6 4 5 18 37 54 70 78 87 97 98 98 99 99
19 19 19 19 18 18 17 17 16 16 16 16 15 15 14 13 13 12 12 11 10 10 10 11 12 12 12 11 10 8 6 5 11 38 59 73 81 86 88 94 97 97 98
8 9 14 20 21 21 21 21 19 18 17 17 17 17 14 11 8 6 5 5 5 5 6 8 10 11 11 10 9 9 9 11 20 50 71 89 95 93 93 95 96 96 96
9 9 10 19 25 25 24 23 23 23 23 21 16 11 7 5 5 5 5 6 7 8 9 9 10 10 10 10 12 16 23 41 62 87 99 100 99 98 98 98 98 96 96
12 11 10 14 27 29 28 27 27 26 21 14 9 6 6 6 7 9 10 12 13 13 14 14 13 14 16 19 29 43 61 97 100 100 100 98 98 97 97 98 98 99 96
20 16 13 13 27 32 32 32 31 24 15 9 7 7 8 10 11 13 14 14 14 15 15 16 16 17 32 57 71 81 93 100 100 100 100 99 98 98 97 97 97 97 98
26 21 14 14 28 36 37 37 30 18 12 9 9 9 10 12 14 15 16 15 16 16 18 19 20 21 41 72 88 87 99 100 100 100 100 100 99 98 98 97 98 98 97
26 22 15 15 37 44 46 39 23 14 11 10 12 14 15 17 18 18 18 18 18 18 19 22 23 24 29 63 93 88 82 100 100 100 100 100 100 99 98 98 97 97 98
26 21 16 24 46 50 49 30 15 12 12 13 15 17 19 20 21 21 20 21 22 21 21 23 25 27 28 34 77 99 86 53 88 100 100 100 100 100 99 99 99 98 97
23 18 18 42 54 56 37 16 13 14 15 17 19 22 23 24 24 24 24 24 27 27 24 24 24 27 30 30 36 72 100 98 54 42 78 98 100 100 100 100 100 100 100
20 19 39 56 60 40 16 14 15 17 19 22 25 27 28 28 28 28 29 30 31 35 31 27 27 27 30 31 31 33 52 87 100 100 93 71 62 69 88 99 100 100 100
20 38 57 61 38 16 15 17 19 23 26 29 31 33 34 35 35 35 35 38 37 42 43 35 32 31 32 31 33 32 32 35 60 85 93 100 100 100 99 85 75 66 72
42 57 57 33 16 17 20 23 26 29 32 36 38 42 44 45 45 45 46 46 46 50 53 49 38 36 35 34 33 33 32 32 32 33 53 77 81 84 89 95 98 100 97

GFSGL_700_rhum_135.txt.gz
RH
94 98 98 99 99 99 46 40 65 89 82 91 98 100 93 100 96 95 76 64 58 56 56 57 60 66 68 71 77 91 98 88 98 99 86 94 96 86 90 75 71 70 67
98 99 97 99 99 100 97 72 68 100 100 100 95 93 100 99 100 91 82 93 82 73 79 76 69 64 66 70 98 99 97 99 98 99 96 83 88 97 96 86 80 73 71
98 98 99 99 100 92 99 98 100 100 92 98 98 98 100 100 96 90 81 95 79 74 71 68 69 72 65 70 71 68 84 89 92 85 100 86 90 87 96 92 89 79 76
97 98 99 99 99 100 100 100 89 100 98 98 99 91 100 99 98 96 81 76 76 75 83 90 86 78 72 99 90 96 72 97 83 92 76 98 86 79 100 97 96 93 82
96 97 96 97 98 99 100 99 97 90 79 78 84 98 98 98 99 90 83 83 88 90 94 92 97 91 100 98 94 99 99 96 93 75 84 82 95 72 90 100 97 98 89
35 46 60 76 44 48 62 73 74 74 70 68 64 63 59 66 70 71 78 82 77 77 99 95 100 98 100 100 98 87 87 100 100 100 94 92 98 100 97 95 87 99 95
11 10 10 11 13 13 15 18 19 20 19 19 18 17 17 18 18 18 18 19 20 24 24 42 64 73 84 97 91 97 96 98 98 93 99 100 99 100 100 81 100 82 94
6 6 6 6 6 5 5 6 6 5 5 5 5 5 4 4 4 4 4 4 4 4 4 5 6 10 14 22 44 70 87 94 98 97 97 100 99 98 98 99 100 100 88
6 6 6 6 6 6 6 5 5 6 5 5 5 5 5 5 5 5 5 5 5 5 4 4 4 4 3 3 4 7 15 26 58 72 78 88 100 98 97 100 98 90 97
7 7 8 8 8 7 7 7 6 6 6 6 6 6 6 6 7 6 6 7 7 7 7 7 6 6 5 5 4 4 4 3 6 15 40 66 73 80 83 93 100 99 100
9 10 10 10 9 9 9 10 9 9 9 9 8 8 8 9 9 9 8 8 8 8 8 7 7 7 6 6 6 5 5 4 4 3 4 11 28 54 87 98 98 100 99
12 13 13 13 13 13 13 13 13 13 12 12 11 11 10 10 10 10 10 9 9 9 8 8 7 7 7 7 7 7 6 6 6 5 4 3 7 16 31 58 96 99 100
18 18 17 18 17 17 17 16 16 15 14 14 13 12 12 12 12 11 10 8 6 5 5 4 4 4 4 4 5 6 7 7 7 7 6 5 4 6 19 30 53 78 99
8 8 9 10 14 16 17 17 17 17 16 16 16 15 14 13 11 8 6 5 3 2 2 2 2 2 2 2 2 3 4 6 7 8 8 7 5 4 12 33 48 62 73
10 12 11 10 11 14 18 19 19 18 18 18 17 16 14 12 9 6 4 3 2 2 2 2 3 3 3 3 4 4 6 8 9 10 10 10 9 11 16 30 51 66 71
25 27 27 25 18 18 23 24 24 22 21 20 20 15 9 6 4 3 2 3 3 3 3 4 4 5 6 6 7 8 9 10 10 11 13 19 22 29 55 72 81 84 84
30 33 34 33 25 23 27 30 30 29 28 23 15 7 4 4 4 4 5 6 6 7 9 10 10 11 11 12 12 12 13 14 16 18 32 47 59 86 97 100 100 100 100
21 24 34 37 32 27 30 34 33 32 28 18 7 5 5 5 6 6 7 8 11 11 12 12 12 13 14 14 15 16 20 44 60 61 71 94 98 96 98 99 97 98 99
21 21 24 35 35 29 34 39 39 35 21 9 5 6 7 7 8 9 10 12 13 14 15 15 15 15 16 17 19 22 44 72 78 86 96 96 100 98 99 99 98 97 98
24 22 21 30 34 30 40 44 43 28 11 7 7 7 8 9 10 11 13 15 17 18 17 17 17 17 18 20 22 25 42 77 86 85 97 97 99 100 98 99 100 99 98
25 22 21 28 32 35 48 48 36 15 8 8 10 11 12 14 15 17 19 20 21 21 20 20 21 21 21 22 24 27 30 67 92 82 74 99 100 100 100 100 100 100 99
24 21 20 31 34 48 52 43 21 10 10 11 13 15 17 19 21 23 24 24 24 24 24 24 25 27 24 24 24 28 30 37 81 97 83 61 90 100 100 100 100 100 100
22 18 25 35 48 54 45 24 11 11 13 15 18 20 22 24 26 28 29 29 29 28 32 31 30 35 32 28 28 27 31 32 39 79 99 97 81 84 97 100 100 100 100
18 22 38 51 57 45 22 12 12 15 18 20 22 25 27 30 32 35 36 37 36 38 40 40 39 39 41 34 33 31 32 33 33 35 64 92 100 100 98 93 93 99 100
20 39 55 59 41 17 12 14 16 18 20 22 25 30 35 40 46 49 49 49 47 48 55 52 50 48 50 45 38 36 34 33 34 34 33 44 77 93 98 98 100 100 94
44 60 58 34 14 13 15 16 18 20 23 25 28 32 38 44 52 64 74 74 68 65 64 65 65 62 62 62 44 39 37 35 35 35 34 34 35 42 76 92 96 100 99

GFSGL_700_rhum_138.txt.gz
RH
93 94 100 100 100 91 93 98 98 98 88 66 70 97 95 98 99 93 100 100 88 74 83 100 100 81 70 60 71 71 72 75 80 80 88 84 90 100 98 97 98 98 81
96 97 98 97 100 97 99 99 99 99 64 61 96 94 97 97 97 93 96 98 97 92 98 97 98 72 66 70 72 70 72 78 85 70 75 100 96 100 85 92 98 99 99
96 96 94 98 98 98 99 99 100 87 66 58 92 100 100 100 98 88 100 100 100 98 100 100 100 93 92 81 72 67 68 79 79 84 82 79 97 97 95 91 95 98 100
95 95 97 97 98 99 98 100 100 97 90 97 100 99 100 99 95 100 100 100 100 100 99 98 92 83 82 80 76 76 80 88 96 100 93 100 99 99 90 99 99 82 96
51 80 75 65 95 96 98 99 99 99 100 100 100 100 99 98 97 99 98 98 99 96 83 81 81 81 86 88 83 77 75 80 91 90 99 97 97 99 94 98 99 95 74
8 11 27 33 18 56 46 35 31 39 38 47 58 70 59 66 72 70 76 76 72 66 61 65 90 98 88 79 84 77 71 79 97 95 93 79 84 83 90 98 100 100 100
5 5 5 5 5 6 6 6 6 7 8 10 12 13 13 12 12 12 11 10 10 10 9 11 12 13 13 14 15 16 23 38 55 76 81 76 78 86 85 86 95 100 95
6 6 7 7 7 7 7 6 6 6 5 4 4 4 4 4 4 4 4 4 4 4 4 4 4 4 4 4 4 4 4 5 7 11 15 23 41 65 80 80 71 98 97
8 9 9 9 9 9 8 8 8 7 7 6 6 7 6 6 6 6 6 6 6 6 6 6 6 6 6 6 5 5 4 4 5 4 4 4 7 12 20 43 69 85 75
12 11 12 12 12 11 11 10 10 10 9 9 8 8 8 8 8 8 7 7 8 8 8 8 7 7 6 6 6 5 5 5 5 5 5 5 4 3 4 9 15 29 62
16 16 16 15 14 14 14 14 14 13 12 12 11 10 10 10 10 10 10 10 9 9 8 7 6 6 6 5 5 4 4 4 4 4 4 4 5 5 5 3 4 9 28
16 16 16 17 18 18 17 17 16 16 15 14 14 14 13 13 12 12 11 10 10 9 8 7 6 5 5 4 4 3 3 3 3 3 3 3 3 4 6 6 4 4 5
8 8 9 10 12 15 19 21 21 20 20 18 17 16 16 15 14 13 12 10 9 8 7 6 5 4 3 2 2 2 2 2 2 2 2 2 2 2 3 5 6 5 4
20 26 27 28 24 20 20 21 22 22 21 20 19 18 16 16 14 13 12 10 7 5 4 3 2 2 2 2 2 2 2 2 2 2 2 2 2 2 2 4 5 7 7
29 29 30 30 29 26 24 22 20 20 23 22 21 20 19 17 15 13 10 8 6 5 3 3 2 2 2 3 3 3 3 3 3 3 4 4 3 3 4 6 8 9 9
18 18 18 20 28 33 34 32 29 28 28 27 26 24 18 12 8 6 5 4 3 3 3 3 3 3 4 4 4 4 4 5 6 7 8 8 8 8 8 9 14 20 19
20 19 18 17 18 29 39 40 38 36 34 32 25 17 11 6 5 4 4 4 4 4 5 6 6 6 6 7 8 8 9 10 10 10 11 12 12 15 18 20 27 39 59
23 23 22 20 18 20 37 44 43 39 37 31 17 7 5 5 4 4 5 6 6 7 8 8 10 11 12 12 13 12 13 14 14 15 16 20 24 35 46 60 77 82 89
26 25 23 22 19 18 35 49 48 43 37 21 8 6 6 5 5 6 8 9 10 10 11 12 14 16 17 16 16 16 16 16 18 19 26 45 53 57 73 84 90 95 96
26 26 24 22 18 18 38 52 50 42 25 9 6 6 7 8 9 11 12 13 13 14 15 17 19 20 20 19 19 19 19 20 23 25 36 66 76 75 80 88 95 98 100
26 25 22 20 17 22 49 56 47 30 10 7 8 8 10 13 14 15 16 18 19 20 21 22 22 23 23 23 23 25 23 22 24 27 30 66 85 80 78 95 100 99 99
25 23 20 18 18 39 59 53 32 12 9 9 10 13 16 17 18 18 19 21 24 28 29 30 29 28 27 29 30 31 30 25 25 29 31 42 86 93 87 88 99 99 100
23 20 18 18 32 61 58 33 13 10 11 12 15 18 19 18 17 18 19 21 27 35 41 44 42 38 37 38 41 42 38 31 29 30 32 33 50 89 94 95 96 100 100
20 18 18 30 64 61 32 12 12 12 13 18 19 16 14 15 16 18 20 25 29 42 54 64 64 58 51 51 53 57 49 38 34 32 32 34 35 48 83 96 100 98 100
19 19 31 67 63 29 12 12 12 16 19 16 13 13 15 17 18 21 23 28 33 43 57 73 86 87 75 65 68 70 66 46 39 37 35 35 35 35 40 79 94 99 100
21 35 71 61 24 13 13 13 17 17 12 12 14 17 19 22 24 27 29 32 39 46 56 72 82 93 96 88 85 84 82 61 44 41 39 37 36 36 36 35 63 94 97

GFSGL_700_rhum_141.txt.gz
RH
97 98 99 89 99 100 96 97 88 99 100 100 87 70 57 42 58 69 100 98 96 65 86 100 99 94 94 96 81 78 93 90 72 60 57 62 69 89 92 80 78 89 98
98 98 100 100 100 100 98 93 98 98 99 100 99 83 71 88 73 82 91 100 100 87 94 85 85 95 100 100 98 98 100 85 96 91 83 76 74 77 83 89 80 80 86
94 97 99 99 99 97 96 98 98 99 99 99 98 98 96 93 86 82 86 86 100 98 100 100 98 100 100 100 98 100 99 95 95 99 99 97 73 74 84 87 96 98 88
28 51 90 94 93 94 97 98 98 99 100 97 99 100 100 100 100 98 92 95 99 99 100 100 99 98 100 97 100 99 97 92 83 90 84 78 84 83 83 90 74 95 89
6 6 14 49 36 72 77 82 89 99 99 98 99 99 100 100 99 99 99 99 99 100 98 96 99 99 100 100 95 94 97 92 93 82 75 77 80 93 99 97 86 83 78
6 6 6 6 6 5 11 26 42 18 15 30 51 68 85 83 74 67 68 48 47 44 43 38 40 48 54 58 66 72 71 74 74 71 73 80 91 95 92 95 87 73 74
8 8 9 9 9 8 7 6 6 5 5 5 5 4 4 5 4 4 4 4 4 4 4 4 4 4 4 4 4 4 4 4 4 6 7 9 13 21 39 58 68 77 84
11 11 10 11 10 11 10 9 8 8 7 7 7 6 6 5 6 6 6 6 6 6 6 6 6 6 6 6 6 6 5 5 5 4 4 4 4 3 3 6 9 16 43
12 13 14 13 13 12 12 12 11 11 11 10 10 10 9 8 8 8 8 8 8 7 7 7 7 6 6 6 6 6 5 5 5 5 5 5 5 5 4 4 3 3 3
16 16 16 16 16 16 14 14 13 13 12 12 11 11 10 10 10 10 10 9 9 9 9 8 8 8 7 7 6 6 6 6 5 4 4 3 3 4 4 4 4 4 4
16 14 14 14 15 16 17 18 17 16 16 16 15 14 13 12 12 11 11 11 10 10 10 9 9 8 8 7 6 6 6 5 5 5 4 4 4 4 3 3 3 3 3
10 15 19 20 18 16 16 18 19 21 20 20 19 18 18 16 15 14 13 13 12 12 11 10 9 8 7 6 6 5 4 4 4 4 3 3 3 3 3 2 2 2 2
27 30 30 28 28 26 26 25 25 24 24 23 22 21 20 19 18 16 16 14 13 12 10 9 8 6 5 5 4 4 3 3 2 2 2 2 2 2 2 2 2 2 2
27 23 20 21 24 30 32 31 30 29 28 25 24 22 21 19 18 17 16 14 11 8 6 6 5 5 4 3 3 3 3 3 2 2 2 2 2 2 2 2 2 2 2
17 18 17 17 16 17 22 31 32 30 29 28 27 26 25 23 20 17 14 11 9 6 5 5 4 4 4 4 4 4 4 4 4 4 4 4 4 4 4 4 3 3 3
21 21 20 20 20 19 19 24 37 38 37 35 34 32 28 20 15 11 9 7 6 5 5 4 4 5 5 6 6 6 6 6 6 6 5 5 5 5 5 6 6 6 6
23 23 23 22 21 21 19 19 38 45 44 42 39 31 21 13 9 6 5 5 5 5 7 8 7 8 8 8 9 9 8 8 8 8 8 8 8 9 10 11 12 12 12
25 24 24 23 22 20 18 17 31 50 51 46 38 24 12 6 5 5 7 8 10 10 9 8 7 7 7 7 8 10 11 11 12 12 12 12 12 13 14 16 26 31 33
26 26 25 24 22 20 18 17 29 53 53 47 31 14 7 5 5 8 11 11 9 8 6 6 6 7 8 11 13 15 17 17 18 17 16 16 16 17 20 32 44 55 64
26 26 25 24 22 19 18 18 38 58 55 39 18 7 5 6 9 12 11 8 7 7 7 8 9 10 11 14 17 21 22 22 22 22 22 21 21 24 28 50 70 71 76
25 25 24 23 21 18 18 20 56 63 45 18 7 6 7 12 14 11 8 8 8 10 12 13 13 14 15 17 21 29 31 29 28 27 29 26 24 28 31 62 82 84 84
24 23 23 21 19 18 19 38 68 53 22 8 7 9 14 15 10 9 10 12 14 15 16 17 18 18 19 21 27 39 44 39 36 39 39 32 29 30 32 41 82 90 93
22 22 21 20 20 20 30 69 58 22 9 8 10 16 15 10 10 13 16 18 19 20 22 22 22 24 29 32 39 49 58 55 47 48 49 38 34 33 34 34 60 91 98
20 20 20 21 22 31 72 60 22 10 9 12 17 13 11 13 17 19 21 22 23 25 28 28 30 33 35 40 47 56 72 74 64 63 60 43 38 36 36 36 37 74 95
19 21 24 26 36 77 62 20 11 10 14 16 12 13 17 18 20 21 23 26 29 30 33 35 39 42 46 50 58 64 78 86 82 80 74 50 42 39 37 36 36 41 82
24 35 49 46 84 64 18 11 11 16 15 12 15 17 18 18 20 22 24 28 33 39 42 44 46 50 53 57 66 75 81 90 95 98 89 57 46 44 41 38 37 37 45

GFSGL_700_rhum_147.txt.gz
RH
42 49 29 68 50 78 72 75 79 74 78 99 94 72 85 81 100 100 76 69 84 40 31 27 38 34 58 92 94 98 99 97 100 88 88 88 80 79 72 74 70 73 77
6 27 16 42 28 12 64 97 98 85 90 84 89 88 76 94 99 92 74 78 94 77 47 85 82 96 93 94 83 86 86 97 98 100 100 96 94 91 86 84 83 84 88
6 7 12 8 11 7 7 15 58 72 94 100 85 72 80 98 99 99 99 100 81 66 100 99 99 100 100 100 93 100 100 100 100 100 99 99 99 99 98 89 88 91 91
8 9 8 9 9 10 10 9 8 12 13 33 85 95 96 98 98 98 99 99 100 100 99 100 99 100 100 99 99 99 100 100 99 100 100 100 100 99 100 97 98 100 98
10 10 10 10 12 12 12 12 11 10 10 9 8 18 54 79 66 61 94 97 97 98 99 99 98 100 100 94 98 98 99 99 99 99 99 99 99 100 99 100 100 100 99
11 12 12 13 13 13 13 13 14 12 12 12 11 11 9 10 10 9 11 20 20 7 13 6 5 7 27 31 52 70 46 7 8 40 42 84 79 31 34 65 96 99 100
12 14 14 14 15 15 15 16 16 15 15 14 14 13 12 11 11 10 10 9 9 8 8 8 7 7 7 6 6 6 6 6 6 5 5 5 5 5 4 4 4 4 6
16 16 16 17 18 18 19 18 18 19 19 17 16 16 15 13 13 12 12 11 11 10 10 9 9 8 8 8 7 7 7 6 6 6 6 6 6 5 5 5 5 5 4
18 17 14 14 14 16 17 18 18 18 20 20 20 18 17 16 15 14 14 13 12 12 11 10 10 9 9 8 8 7 7 7 6 6 6 6 5 5 5 5 5 4 4
12 13 19 22 22 22 21 22 22 22 21 22 21 21 20 18 18 16 15 14 14 12 12 11 11 10 10 9 8 8 7 6 6 5 5 4 4 4 3 3 3 2 2
18 27 28 27 26 24 24 26 27 27 27 26 23 21 19 18 18 17 17 16 15 14 14 13 12 11 11 10 8 7 6 5 5 4 4 4 4 3 3 3 2 2 2
29 30 22 17 17 19 21 24 28 31 32 32 30 28 25 23 21 20 19 19 18 17 16 15 14 13 12 10 9 8 7 6 6 5 4 4 4 3 3 3 2 2 2
30 18 18 19 22 24 27 28 27 30 35 35 33 32 31 28 27 25 23 22 20 19 18 17 15 14 12 11 10 9 8 7 6 5 5 4 4 3 3 2 2 2 2
20 20 20 20 20 19 21 28 36 38 36 37 37 35 33 32 31 29 27 25 23 20 17 15 13 12 11 10 8 7 7 6 6 5 4 3 3 3 3 2 2 2 2
20 22 23 22 22 21 19 18 18 29 42 43 41 40 38 35 32 30 29 28 26 22 17 12 9 7 7 6 6 5 5 4 4 4 3 3 3 3 3 3 3 3 3
23 25 25 25 24 23 22 21 19 18 20 38 45 46 46 45 44 40 36 32 28 21 15 12 9 8 6 6 5 5 5 5 4 4 4 4 4 4 4 4 5 4 4
25 27 27 26 25 24 23 22 22 20 18 20 41 49 50 52 50 43 35 27 21 14 10 8 7 6 6 5 6 6 6 6 6 6 6 6 7 7 7 7 7 7 7
26 27 28 27 27 26 24 23 22 21 19 20 34 51 55 58 51 38 28 20 11 9 8 7 7 7 7 7 7 7 7 8 8 9 9 10 10 10 10 10 10 10 10
25 27 28 28 27 26 24 22 22 21 20 21 40 55 62 61 45 28 18 12 8 8 8 8 8 8 9 9 9 10 10 11 12 13 14 15 15 14 14 14 14 16 19
26 28 28 27 26 26 23 21 21 21 20 28 57 65 67 57 32 17 12 9 10 10 10 10 10 10 10 11 13 14 14 15 16 18 19 19 18 18 17 17 19 24 28
24 25 26 25 25 23 20 19 20 21 25 58 72 72 67 38 18 10 11 12 11 11 11 11 11 13 15 16 17 18 19 20 23 25 25 25 24 22 23 24 33 41 39
23 23 22 22 21 19 18 24 23 25 58 82 82 70 36 15 11 12 14 13 12 12 13 14 16 19 20 21 22 23 24 28 30 32 31 30 31 32 33 36 51 55 50
18 18 18 18 18 33 79 58 28 64 92 91 76 38 15 11 14 15 14 13 14 15 18 20 21 23 24 26 27 29 32 35 38 39 37 38 41 42 42 49 66 66 56
15 16 16 30 89 95 43 36 86 98 95 78 35 14 13 16 16 14 14 15 18 20 22 22 23 25 28 32 35 38 43 46 46 46 48 50 51 52 52 63 81 80 56
17 48 94 96 67 35 68 99 100 97 73 29 14 15 17 16 14 15 18 20 21 18 19 22 26 29 33 37 41 46 51 54 53 53 58 61 63 65 69 80 91 82 54
84 65 40 37 68 98 100 100 94 60 21 14 16 17 16 15 18 21 20 17 17 20 24 28 32 35 39 43 50 55 58 59 60 61 70 73 75 77 80 90 98 80 58

GFSGL_700_rhum_153.txt.gz
RH
6 6 9 10 8 8 8 9 8 15 48 70 81 84 90 86 66 71 84 81 89 94 100 94 75 93 68 64 83 77 76 71 67 64 86 83 77 78 79 86 78 66 58
6 7 8 9 10 11 10 10 10 10 20 36 69 85 92 96 96 95 100 99 99 93 94 99 93 100 57 61 84 74 66 65 76 73 98 97 99 100 99 100 98 98 84
7 8 9 11 12 12 13 12 12 11 11 10 21 45 52 78 88 90 97 97 100 98 99 94 91 99 83 86 99 100 100 88 100 87 99 99 99 100 96 100 100 89 99
8 9 11 13 13 14 14 15 14 14 13 12 11 10 14 26 52 74 61 84 98 99 98 99 98 95 65 84 94 99 99 100 97 100 100 96 95 100 93 99 100 98 99
10 11 13 14 15 17 18 17 17 17 16 15 14 12 11 10 9 10 22 28 46 63 85 96 98 98 98 98 99 97 100 98 100 100 99 100 100 100 99 100 100 100 100
11 14 16 17 18 20 20 20 19 19 18 18 16 15 14 13 12 11 10 9 8 8 14 24 38 46 58 78 90 96 97 99 98 99 97 98 100 100 100 100 100 100 99
14 17 19 19 19 20 20 20 20 20 20 20 20 19 17 16 15 14 13 11 10 9 8 8 7 7 6 6 8 11 21 29 39 32 51 60 80 87 93 95 96 96 96
17 19 18 19 22 23 24 25 25 24 25 24 22 21 21 19 18 17 16 15 14 12 11 10 10 9 8 8 7 7 7 6 6 6 6 6 7 6 6 6 8 13 24
19 16 21 28 30 30 31 32 32 31 30 30 29 27 26 24 22 20 20 18 17 16 15 14 13 12 11 10 9 8 7 6 6 5 5 5 4 4 4 4 4 4 4
16 19 29 31 25 23 25 28 32 35 36 35 33 31 30 28 27 26 24 23 22 20 19 18 16 15 14 13 12 12 11 10 9 8 8 7 6 5 5 4 4 4 4
14 27 29 18 20 26 30 34 36 37 37 38 38 36 34 32 30 30 28 26 24 23 22 21 20 19 18 16 16 15 14 14 12 12 11 10 9 8 8 7 7 6 6
18 29 21 19 22 23 22 21 22 25 29 33 37 39 40 39 38 36 35 32 30 29 27 26 23 21 20 19 18 17 16 15 14 14 13 12 11 10 10 9 9 8 8
20 29 20 20 20 20 20 20 19 19 18 17 16 16 17 22 29 36 37 35 34 33 31 28 27 26 25 23 22 21 20 18 17 16 15 14 13 12 12 11 10 9 8
20 27 22 23 23 23 23 22 21 20 19 19 18 17 17 18 20 24 30 36 39 38 35 33 31 29 28 26 24 23 22 20 18 17 16 15 14 12 11 11 10 9 8
17 26 23 25 26 26 25 24 23 22 20 20 19 19 18 18 18 19 23 31 37 39 39 37 36 33 31 28 26 24 22 20 19 17 16 14 13 11 9 8 7 6 5
16 23 24 26 28 28 27 27 25 24 22 21 20 20 20 28 37 36 32 37 46 48 45 41 38 36 33 29 26 22 19 17 14 12 11 9 7 6 5 4 4 3 3
16 18 23 26 28 30 30 29 26 25 23 22 21 20 27 48 53 40 36 42 46 50 47 43 40 37 32 27 21 15 12 10 7 7 6 5 4 4 4 4 4 4 5
19 18 21 25 28 30 30 30 28 26 23 22 21 20 37 60 51 40 56 62 59 56 52 42 35 28 21 16 11 9 8 7 6 6 6 5 5 6 6 6 6 6 6
20 19 21 24 27 28 29 28 27 25 23 21 20 26 60 65 48 56 62 64 62 54 44 30 20 14 11 10 9 9 8 8 7 7 7 8 8 9 8 8 8 8 9
16 20 22 23 25 26 26 26 25 22 20 19 35 76 69 52 68 75 74 68 55 39 26 17 13 11 11 11 11 10 10 10 10 12 12 12 12 12 12 13 13 13 14
9 15 21 24 24 24 24 22 19 18 18 53 88 74 54 77 80 79 72 57 38 23 15 13 12 12 12 12 11 11 13 15 15 15 15 16 16 17 20 21 23 24 26
10 12 17 20 20 19 17 16 17 22 70 94 70 64 81 85 83 73 51 29 16 14 14 14 14 14 13 14 16 18 18 18 18 19 21 23 24 27 30 34 36 36 35
10 11 12 13 13 14 15 19 52 95 94 73 84 92 89 86 72 42 20 15 16 16 16 16 15 16 20 22 21 21 20 20 20 23 26 32 38 42 44 48 48 44 42
13 12 13 14 18 34 73 97 95 94 97 98 94 93 87 63 29 16 16 17 17 18 17 18 22 25 25 24 23 22 22 24 27 31 38 42 48 53 55 56 53 53 53
54 54 57 63 86 97 94 94 99 99 98 97 94 80 42 18 17 18 18 19 20 19 23 28 28 28 25 23 23 24 28 32 38 42 46 51 56 61 62 61 61 62 63
97 98 98 98 98 99 100 99 99 99 99 90 53 20 18 19 19 19 22 21 22 28 31 31 29 26 24 24 28 34 38 43 47 52 56 60 62 66 71 73 75 75 74